When you browse on this site, cookies collect data to enhance your experience and personalize the content and advertising you see.
Visit our Privacy Policy to learn more. By continuing to use the site, you agree to this use of cookies and data.
  • In Switzerland
  • List of Countries
  • For 7 days
  • Water Temperature
  • Weather Map
  • Weather Widgets
  • user-avatar
    Login

    Hourly Weather Gold Coast

    Today, 1 June, Monday

    Time Temperature Precipitation Wind Pressure Humidity
    00:00 +15°C° 0 mm 2 mps 760 mmHg 91%
    01:00 +15°C° 0 mm 2 mps 760 mmHg 92%
    02:00 +15°C° 0 mm 2 mps 760 mmHg 92%
    03:00 +15°C° 0 mm 2 mps 760 mmHg 93%
    04:00 +15°C° 0 mm 2 mps 759 mmHg 93%
    05:00 +15°C° 0 mm 2 mps 759 mmHg 93%
    06:00 +15°C° 0 mm 2 mps 759 mmHg 93%
    07:00 +15°C° 0 mm 2 mps 760 mmHg 93%
    08:00 +17°C° 0 mm 3 mps 760 mmHg 83%
    09:00 +19°C° 0 mm 3 mps 760 mmHg 72%
    10:00 +22°C° 0 mm 4 mps 759 mmHg 61%
    11:00 +23°C° 0 mm 4 mps 758 mmHg 58%
    12:00 +23°C° 0 mm 4 mps 757 mmHg 54%
    13:00 +25°C° 0 mm 4 mps 757 mmHg 51%
    14:00 +23°C° 0.3 mm 4 mps 756 mmHg 59%
    15:00 +22°C° 0.3 mm 4 mps 756 mmHg 67%
    16:00 +21°C° 0 mm 4 mps 756 mmHg 77%
    17:00 +20°C° 0.3 mm 4 mps 756 mmHg 81%
    18:00 +18°C° 0.3 mm 4 mps 756 mmHg 85%
    19:00 +17°C° 0.3 mm 4 mps 757 mmHg 88%
    20:00 +17°C° 0.1 mm 4 mps 757 mmHg 88%
    21:00 +17°C° 0.1 mm 4 mps 757 mmHg 88%
    22:00 +15°C° 0 mm 4 mps 757 mmHg 90%
    23:00 +15°C° 0 mm 4 mps 757 mmHg 90%

    Tomorrow, 2 June, Tuesday

    Time Temperature Precipitation Wind Pressure Humidity
    00:00 +14°C° 0 mm 4 mps 756 mmHg 91%
    01:00 +13°C° 0 mm 4 mps 756 mmHg 92%
    02:00 +13°C° 0 mm 4 mps 756 mmHg 90%
    03:00 +12°C° 0 mm 4 mps 757 mmHg 88%
    04:00 +11°C° 0 mm 4 mps 757 mmHg 86%
    05:00 +11°C° 0 mm 4 mps 758 mmHg 86%
    06:00 +10°C° 0 mm 4 mps 758 mmHg 85%
    07:00 +8°C° 0 mm 4 mps 759 mmHg 85%
    08:00 +11°C° 0 mm 4 mps 759 mmHg 70%
    09:00 +13°C° 0 mm 5 mps 759 mmHg 55%
    10:00 +15°C° 0 mm 5 mps 759 mmHg 40%
    11:00 +16°C° 0 mm 5 mps 759 mmHg 37%
    12:00 +17°C° 0 mm 5 mps 758 mmHg 33%
    13:00 +19°C° 0 mm 6 mps 758 mmHg 30%
    14:00 +19°C° 0 mm 5 mps 758 mmHg 34%
    15:00 +17°C° 0 mm 5 mps 758 mmHg 37%
    16:00 +16°C° 0 mm 5 mps 758 mmHg 41%
    17:00 +14°C° 0 mm 5 mps 759 mmHg 47%
    18:00 +12°C° 0 mm 5 mps 759 mmHg 53%
    19:00 +9°C° 0 mm 5 mps 760 mmHg 59%
    20:00 +9°C° 0 mm 5 mps 760 mmHg 62%
    21:00 +8°C° 0 mm 4 mps 761 mmHg 65%
    22:00 +7°C° 0 mm 4 mps 761 mmHg 68%
    23:00 +8°C° 0 mm 3 mps 761 mmHg 70%

    Day after tomorrow, 3 June, Wednesday

    Time Temperature Precipitation Wind Pressure Humidity
    00:00 +8°C° 0 mm 3 mps 761 mmHg 72%
    01:00 +7°C° 0 mm 2 mps 761 mmHg 74%
    02:00 +7°C° 0 mm 2 mps 761 mmHg 74%
    03:00 +7°C° 0 mm 2 mps 761 mmHg 75%
    04:00 +7°C° 0 mm 2 mps 761 mmHg 76%
    05:00 +7°C° 0 mm 2 mps 761 mmHg 75%
    06:00 +7°C° 0 mm 2 mps 761 mmHg 74%
    07:00 +7°C° 0 mm 2 mps 762 mmHg 73%
    08:00 +11°C° 0 mm 1 mps 762 mmHg 62%
    09:00 +15°C° 0 mm 1 mps 762 mmHg 51%
    10:00 +19°C° 0 mm 1 mps 762 mmHg 39%
    11:00 +20°C° 0 mm 1 mps 762 mmHg 38%
    12:00 +21°C° 0 mm 1 mps 761 mmHg 37%
    13:00 +22°C° 0 mm 1 mps 761 mmHg 36%
    14:00 +20°C° 0 mm 2 mps 761 mmHg 42%
    15:00 +18°C° 0 mm 2 mps 761 mmHg 48%
    16:00 +17°C° 0 mm 3 mps 761 mmHg 54%
    17:00 +14°C° 0 mm 3 mps 762 mmHg 61%
    18:00 +13°C° 0 mm 3 mps 763 mmHg 67%
    19:00 +11°C° 0 mm 4 mps 763 mmHg 74%
    20:00 +11°C° 0 mm 4 mps 764 mmHg 76%
    21:00 +11°C° 0 mm 4 mps 764 mmHg 78%
    22:00 +11°C° 0 mm 4 mps 765 mmHg 80%
    23:00 +11°C° 0 mm 4 mps 765 mmHg 82%

    4 June, Thursday

    Time Temperature Precipitation Wind Pressure Humidity
    00:00 +10°C° 0 mm 5 mps 765 mmHg 85%
    01:00 +10°C° 0 mm 5 mps 765 mmHg 88%
    02:00 +9°C° 0 mm 5 mps 765 mmHg 88%
    03:00 +9°C° 0 mm 5 mps 765 mmHg 89%
    04:00 +8°C° 0 mm 5 mps 765 mmHg 89%
    05:00 +8°C° 0 mm 5 mps 765 mmHg 88%
    06:00 +8°C° 0 mm 5 mps 766 mmHg 86%
    07:00 +9°C° 0 mm 5 mps 766 mmHg 84%
    08:00 +12°C° 0 mm 5 mps 766 mmHg 78%
    09:00 +14°C° 0 mm 6 mps 767 mmHg 72%
    10:00 +16°C° 0 mm 6 mps 767 mmHg 66%
    11:00 +17°C° 0 mm 6 mps 766 mmHg 64%
    12:00 +17°C° 0 mm 6 mps 766 mmHg 62%
    13:00 +17°C° 0 mm 6 mps 766 mmHg 61%
    14:00 +17°C° 0.1 mm 6 mps 766 mmHg 64%
    15:00 +17°C° 0.1 mm 6 mps 766 mmHg 67%
    16:00 +16°C° 0.1 mm 6 mps 766 mmHg 70%
    17:00 +15°C° 0 mm 5 mps 766 mmHg 76%
    18:00 +14°C° 0 mm 5 mps 766 mmHg 81%
    19:00 +13°C° 0 mm 4 mps 767 mmHg 86%
    20:00 +13°C° 0.1 mm 4 mps 767 mmHg 87%
    21:00 +13°C° 0.1 mm 4 mps 767 mmHg 87%
    22:00 +13°C° 0.1 mm 4 mps 767 mmHg 87%
    23:00 +12°C° 0.1 mm 4 mps 767 mmHg 90%

    5 June, Friday

    Time Temperature Precipitation Wind Pressure Humidity
    00:00 +11°C° 0.1 mm 4 mps 767 mmHg 93%
    01:00 +11°C° 0.1 mm 4 mps 766 mmHg 95%
    02:00 +10°C° 0 mm 4 mps 766 mmHg 96%
    03:00 +10°C° 0 mm 4 mps 766 mmHg 96%
    04:00 +10°C° 0 mm 4 mps 766 mmHg 96%
    05:00 +10°C° 0 mm 4 mps 766 mmHg 95%
    06:00 +10°C° 0 mm 4 mps 767 mmHg 95%
    07:00 +10°C° 0 mm 4 mps 767 mmHg 95%
    08:00 +13°C° 0 mm 4 mps 767 mmHg 83%
    09:00 +15°C° 0 mm 5 mps 767 mmHg 71%
    10:00 +19°C° 0 mm 5 mps 767 mmHg 60%
    11:00 +19°C° 0 mm 5 mps 766 mmHg 57%
    12:00 +20°C° 0 mm 5 mps 766 mmHg 54%
    13:00 +21°C° 0 mm 5 mps 765 mmHg 52%
    14:00 +20°C° 0 mm 5 mps 765 mmHg 55%
    15:00 +20°C° 0 mm 5 mps 765 mmHg 58%
    16:00 +19°C° 0 mm 5 mps 764 mmHg 61%
    17:00 +16°C° 0 mm 5 mps 765 mmHg 70%
    18:00 +15°C° 0 mm 4 mps 765 mmHg 80%
    19:00 +13°C° 0 mm 4 mps 765 mmHg 89%
    20:00 +12°C° 0.1 mm 4 mps 765 mmHg 90%
    21:00 +12°C° 0.1 mm 4 mps 765 mmHg 92%
    22:00 +12°C° 0.1 mm 4 mps 765 mmHg 93%
    23:00 +11°C° 0 mm 4 mps 765 mmHg 94%

    6 June, Saturday

    Time Temperature Precipitation Wind Pressure Humidity
    00:00 +11°C° 0 mm 3 mps 765 mmHg 94%
    01:00 +11°C° 0 mm 3 mps 765 mmHg 94%
    02:00 +11°C° 0 mm 3 mps 765 mmHg 94%
    03:00 +11°C° 0 mm 3 mps 764 mmHg 94%
    04:00 +11°C° 0 mm 3 mps 764 mmHg 95%
    05:00 +11°C° 0 mm 3 mps 764 mmHg 94%
    06:00 +11°C° 0 mm 3 mps 765 mmHg 94%
    07:00 +11°C° 0 mm 3 mps 765 mmHg 93%
    08:00 +13°C° 0 mm 3 mps 765 mmHg 81%
    09:00 +17°C° 0 mm 3 mps 765 mmHg 69%
    10:00 +20°C° 0 mm 3 mps 765 mmHg 57%
    11:00 +21°C° 0 mm 4 mps 764 mmHg 54%
    12:00 +21°C° 0 mm 4 mps 763 mmHg 51%
    13:00 +22°C° 0 mm 4 mps 763 mmHg 48%
    14:00 +21°C° 0 mm 4 mps 762 mmHg 53%
    15:00 +20°C° 0 mm 4 mps 762 mmHg 59%
    16:00 +19°C° 0 mm 4 mps 762 mmHg 64%
    17:00 +18°C° 0 mm 4 mps 762 mmHg 72%
    18:00 +16°C° 0 mm 3 mps 763 mmHg 80%
    19:00 +14°C° 0 mm 2 mps 763 mmHg 88%
    20:00 +14°C° 0 mm 2 mps 763 mmHg 88%
    21:00 +13°C° 0 mm 2 mps 763 mmHg 88%
    22:00 +13°C° 0 mm 2 mps 763 mmHg 88%
    23:00 +13°C° 0 mm 2 mps 763 mmHg 89%
    Show more